User: anonymous   Login
Location: Arroyo de San Miguel
(40.9167°N, 4.6667°W)
Time: 00:07:10
(UTC+00:00)
Language:

Cosmos 2151 - Orbit

View from above orbital plane
View from above orbital plane
View from above satellite
View from above satellite

Ground track
Ground track

The orbit data is extracted from the following two-line orbital elements,

1 21422U 91042A   25189.51341754  .00001501  00000-0  12181-3 0  9995
2 21422  82.4984 318.9221 0013101 158.6731 201.5041 14.98911031847752
Epoch (UTC): 08 July 2025 12:19:19
Eccentricity: 0.0013101
inclination: 82.4984°
perigee height: 561 km
apogee height: 579 km
right ascension of ascending node: 318.9221°
argument of perigee: 158.6731°
revolutions per day: 14.98911031
mean anomaly at epoch: 201.5041°
orbit number at epoch: 84775

The dashed part of the orbit path shows where the satellite is in the earth's shadow,  

DLR